• In Netherlands
  • List of Countries
  • For 7 days
  • Water Temperature
  • Satellite Maps
  • Weather Map
  • Weather Widgets
  • user-avatar
    Login

    Hourly Weather Tibissa

    Today, 29 July, Saturday

    Time Temperature Precipitation Wind Pressure Humidity
    00:00 +29°C° 0 mm 2 mps 689 mmHg 30%
    01:00 +28°C° 0 mm 2 mps 689 mmHg 33%
    02:00 +28°C° 0 mm 2 mps 688 mmHg 35%
    03:00 +27°C° 0 mm 2 mps 688 mmHg 37%
    04:00 +27°C° 0 mm 2 mps 688 mmHg 40%
    05:00 +27°C° 0 mm 2 mps 688 mmHg 39%
    06:00 +28°C° 0 mm 2 mps 688 mmHg 38%
    07:00 +28°C° 0 mm 2 mps 689 mmHg 38%
    08:00 +29°C° 0 mm 2 mps 689 mmHg 34%
    09:00 +31°C° 0 mm 2 mps 689 mmHg 30%
    10:00 +34°C° 0 mm 2 mps 690 mmHg 26%
    11:00 +35°C° 0 mm 2 mps 690 mmHg 23%
    12:00 +36°C° 0 mm 2 mps 690 mmHg 21%
    13:00 +37°C° 0 mm 2 mps 690 mmHg 19%
    14:00 +37°C° 0 mm 3 mps 690 mmHg 18%
    15:00 +38°C° 0 mm 3 mps 689 mmHg 18%
    16:00 +38°C° 0 mm 3 mps 689 mmHg 17%
    17:00 +38°C° 0 mm 4 mps 689 mmHg 18%
    18:00 +37°C° 0 mm 4 mps 689 mmHg 19%
    19:00 +37°C° 0 mm 4 mps 688 mmHg 19%
    20:00 +36°C° 0 mm 4 mps 688 mmHg 21%
    21:00 +35°C° 0 mm 4 mps 688 mmHg 23%
    22:00 +34°C° 0 mm 4 mps 689 mmHg 25%
    23:00 +33°C° 0 mm 4 mps 688 mmHg 26%

    Tomorrow, 30 July, Sunday

    Time Temperature Precipitation Wind Pressure Humidity
    00:00 +32°C° 0 mm 4 mps 688 mmHg 28%
    01:00 +30°C° 0 mm 4 mps 688 mmHg 30%
    02:00 +29°C° 0 mm 3 mps 688 mmHg 31%
    03:00 +29°C° 0 mm 3 mps 688 mmHg 33%
    04:00 +28°C° 0 mm 3 mps 687 mmHg 34%
    05:00 +28°C° 0 mm 3 mps 687 mmHg 33%
    06:00 +29°C° 0 mm 3 mps 687 mmHg 32%
    07:00 +29°C° 0 mm 3 mps 688 mmHg 31%
    08:00 +31°C° 0 mm 3 mps 688 mmHg 28%
    09:00 +33°C° 0 mm 4 mps 688 mmHg 24%
    10:00 +35°C° 0 mm 4 mps 689 mmHg 21%
    11:00 +36°C° 0 mm 4 mps 689 mmHg 19%
    12:00 +38°C° 0 mm 4 mps 689 mmHg 18%
    13:00 +40°C° 0 mm 4 mps 689 mmHg 16%
    14:00 +40°C° 0 mm 4 mps 688 mmHg 15%
    15:00 +41°C° 0 mm 4 mps 688 mmHg 15%
    16:00 +41°C° 0 mm 4 mps 688 mmHg 14%
    17:00 +40°C° 0 mm 5 mps 687 mmHg 15%
    18:00 +40°C° 0 mm 5 mps 687 mmHg 15%
    19:00 +39°C° 0 mm 6 mps 687 mmHg 16%
    20:00 +37°C° 0 mm 5 mps 687 mmHg 18%
    21:00 +35°C° 0 mm 4 mps 688 mmHg 20%
    22:00 +34°C° 0 mm 3 mps 688 mmHg 23%
    23:00 +33°C° 0 mm 3 mps 688 mmHg 25%

    Day after tomorrow, 31 July, Monday

    Time Temperature Precipitation Wind Pressure Humidity
    00:00 +31°C° 0 mm 3 mps 687 mmHg 27%
    01:00 +30°C° 0 mm 2 mps 687 mmHg 28%
    02:00 +30°C° 0 mm 2 mps 687 mmHg 30%
    03:00 +29°C° 0 mm 2 mps 687 mmHg 32%
    04:00 +28°C° 0 mm 2 mps 686 mmHg 34%
    05:00 +29°C° 0 mm 2 mps 687 mmHg 33%
    06:00 +29°C° 0 mm 2 mps 687 mmHg 32%
    07:00 +29°C° 0 mm 2 mps 687 mmHg 31%
    08:00 +31°C° 0 mm 3 mps 687 mmHg 26%
    09:00 +34°C° 0 mm 3 mps 688 mmHg 22%
    10:00 +36°C° 0 mm 4 mps 688 mmHg 18%
    11:00 +37°C° 0 mm 4 mps 688 mmHg 17%
    12:00 +38°C° 0 mm 4 mps 688 mmHg 15%
    13:00 +40°C° 0 mm 4 mps 688 mmHg 14%
    14:00 +41°C° 0 mm 4 mps 688 mmHg 14%
    15:00 +40°C° 0 mm 3 mps 688 mmHg 13%
    16:00 +42°C° 0 mm 3 mps 687 mmHg 13%
    17:00 +41°C° 0 mm 4 mps 687 mmHg 14%
    18:00 +40°C° 0 mm 5 mps 687 mmHg 14%
    19:00 +40°C° 0 mm 5 mps 687 mmHg 15%
    20:00 +37°C° 0 mm 5 mps 687 mmHg 18%
    21:00 +35°C° 0 mm 5 mps 688 mmHg 21%
    22:00 +34°C° 0 mm 5 mps 688 mmHg 24%
    23:00 +33°C° 0 mm 4 mps 688 mmHg 26%

    1 August, Tuesday

    Time Temperature Precipitation Wind Pressure Humidity
    00:00 +31°C° 0 mm 3 mps 688 mmHg 28%
    01:00 +30°C° 0 mm 2 mps 688 mmHg 30%
    02:00 +30°C° 0 mm 2 mps 687 mmHg 31%
    03:00 +29°C° 0 mm 2 mps 687 mmHg 33%
    04:00 +28°C° 0 mm 2 mps 687 mmHg 34%
    05:00 +29°C° 0 mm 2 mps 687 mmHg 33%
    06:00 +29°C° 0 mm 2 mps 688 mmHg 32%
    07:00 +29°C° 0 mm 2 mps 688 mmHg 31%
    08:00 +31°C° 0 mm 2 mps 688 mmHg 27%
    09:00 +34°C° 0 mm 2 mps 689 mmHg 24%
    10:00 +36°C° 0 mm 3 mps 689 mmHg 20%
    11:00 +37°C° 0 mm 3 mps 689 mmHg 18%
    12:00 +38°C° 0 mm 4 mps 689 mmHg 17%
    13:00 +40°C° 0 mm 4 mps 689 mmHg 15%
    14:00 +40°C° 0 mm 4 mps 689 mmHg 15%
    15:00 +40°C° 0 mm 5 mps 689 mmHg 14%
    16:00 +41°C° 0 mm 5 mps 688 mmHg 14%
    17:00 +40°C° 0 mm 5 mps 688 mmHg 16%
    18:00 +39°C° 0 mm 6 mps 688 mmHg 17%
    19:00 +38°C° 0 mm 6 mps 688 mmHg 19%
    20:00 +35°C° 0 mm 6 mps 689 mmHg 21%
    21:00 +34°C° 0 mm 6 mps 689 mmHg 24%
    22:00 +32°C° 0 mm 5 mps 689 mmHg 27%
    23:00 +32°C° 0 mm 4 mps 689 mmHg 28%

    2 August, Wednesday

    Time Temperature Precipitation Wind Pressure Humidity
    00:00 +30°C° 0 mm 3 mps 689 mmHg 30%
    01:00 +29°C° 0 mm 3 mps 689 mmHg 32%
    02:00 +28°C° 0 mm 2 mps 689 mmHg 33%
    03:00 +28°C° 0 mm 2 mps 688 mmHg 34%
    04:00 +27°C° 0 mm 2 mps 688 mmHg 34%
    05:00 +27°C° 0 mm 2 mps 688 mmHg 33%
    06:00 +28°C° 0 mm 2 mps 689 mmHg 31%
    07:00 +28°C° 0 mm 2 mps 689 mmHg 29%
    08:00 +30°C° 0 mm 2 mps 689 mmHg 26%
    09:00 +31°C° 0 mm 2 mps 690 mmHg 22%
    10:00 +34°C° 0 mm 2 mps 690 mmHg 18%
    11:00 +35°C° 0 mm 2 mps 690 mmHg 16%
    12:00 +36°C° 0 mm 2 mps 690 mmHg 14%
    13:00 +37°C° 0 mm 3 mps 690 mmHg 12%
    14:00 +37°C° 0 mm 3 mps 690 mmHg 12%
    15:00 +38°C° 0 mm 3 mps 690 mmHg 11%
    16:00 +38°C° 0 mm 4 mps 689 mmHg 10%
    17:00 +38°C° 0 mm 4 mps 689 mmHg 11%
    18:00 +37°C° 0 mm 5 mps 689 mmHg 12%
    19:00 +36°C° 0 mm 5 mps 689 mmHg 13%
    20:00 +35°C° 0 mm 5 mps 690 mmHg 16%
    21:00 +34°C° 0 mm 5 mps 690 mmHg 19%
    22:00 +32°C° 0 mm 4 mps 690 mmHg 23%
    23:00 +31°C° 0 mm 3 mps 690 mmHg 26%

    3 August, Thursday

    Time Temperature Precipitation Wind Pressure Humidity
    00:00 +30°C° 0 mm 2 mps 689 mmHg 29%
    01:00 +29°C° 0 mm 1 mps 689 mmHg 32%
    02:00 +28°C° 0 mm 1 mps 689 mmHg 34%
    03:00 +27°C° 0 mm 1 mps 689 mmHg 36%
    04:00 +27°C° 0 mm 1 mps 688 mmHg 37%
    05:00 +27°C° 0 mm 1 mps 689 mmHg 35%
    06:00 +28°C° 0 mm 1 mps 689 mmHg 34%
    07:00 +29°C° 0 mm 1 mps 689 mmHg 32%
    08:00 +30°C° 0 mm 1 mps 689 mmHg 28%
    09:00 +31°C° 0 mm 1 mps 690 mmHg 24%
    10:00 +33°C° 0 mm 1 mps 690 mmHg 20%
    11:00 +35°C° 0 mm 2 mps 690 mmHg 18%
    12:00 +36°C° 0 mm 2 mps 690 mmHg 16%
    13:00 +37°C° 0 mm 3 mps 689 mmHg 14%
    14:00 +37°C° 0 mm 3 mps 689 mmHg 13%
    15:00 +38°C° 0 mm 3 mps 689 mmHg 13%
    16:00 +38°C° 0 mm 4 mps 689 mmHg 12%
    17:00 +38°C° 0 mm 4 mps 688 mmHg 13%
    18:00 +38°C° 0 mm 4 mps 688 mmHg 13%
    19:00 +37°C° 0 mm 5 mps 688 mmHg 14%
    20:00 +36°C° 0 mm 5 mps 688 mmHg 15%
    21:00 +35°C° 0 mm 4 mps 689 mmHg 17%
    22:00 +34°C° 0 mm 4 mps 689 mmHg 19%
    23:00 +33°C° 0 mm 3 mps 688 mmHg 21%
    Show more